Weather History for Tappahannock, VA

Change the Weather History Date:

Tuesday, January 1, 2013

  Actual Average (KRIC) Record (KRIC)
Temperature  
Mean Temperature 42 °F 38 °F  
Max Temperature 46 °F 47 °F 78 °F (1952)
Min Temperature 39 °F 29 °F 6 °F (1918)
Degree Days  
Heating Degree Days 22 27  
Month to date heating degree days 27  
Since 1 July heating degree days 1446  
Cooling Degree Days 0 0  
Month to date cooling degree days 0  
Year to date cooling degree days 0  
Moisture  
Dew Point 33 °F    
Average Humidity 68    
Maximum Humidity 93    
Minimum Humidity 43    
Precipitation  
Precipitation 0.00 in 0.09 in 1.60 in (2007)
Month to date precipitation 0.09  
Year to date precipitation 0.09  
Snow  
Snow 0.00 in 0.10 in 4.90 in (1962)
Month to date snowfall 0.1  
Since 1 July snowfall 2.4  
Snow Depth -    
Sea Level Pressure  
Sea Level Pressure 29.98 in    
Wind  
Wind Speed 4 mph (SW)    
Max Wind Speed 8 mph    
Max Gust Speed -    
Visibility 10 miles    
Events Rain    
T = Trace of Precipitation, MM = Missing Value Source: NWS Daily Summary

Daily Weather History Graph

Daily Weather History Graph

Search for Another Location

Airport:

Trip Planner

Search our weather history database for the weather conditions in past years. The results will help you decide how hot, cold, wet, or windy it might be!

Date:

Astronomy

Jan. 01, 2013 Rise Set
Actual Time 7:23 AM EST 4:59 PM EST
Civil Twilight 6:54 AM EST 5:28 PM EST
Nautical Twilight 6:21 AM EST 6:01 PM EST
Astronomical Twilight 5:49 AM EST 6:33 PM EST
Moon 9:23 PM EST (1/1) 9:38 AM EST (1/1)
Length of Visible Light 10h 34m
Length of Day
9h 36m
Waning Gibbous, 83% of the Moon is Illuminated
Jan 1
Waning Gibbous
Jan 4
Last Quarter
Jan 11
New
Jan 18
First Quarter
Jan 26
Full

Hourly Weather History & Observations

Time (EST) Temp. Windchill Dew Point Humidity Pressure Visibility Wind Dir Wind Speed Gust Speed Precip Events Conditions
12:15 AM 46.0 °F 41.9 °F 24.8 °F 43% 30.03 in 10.0 mi SSW 8.1 mph - N/A   Clear
12:35 AM 46.0 °F 43.1 °F 25.2 °F 44% 30.03 in 10.0 mi SW 5.8 mph - N/A   Clear
12:55 AM 45.9 °F 43.6 °F 25.3 °F 45% 30.02 in 10.0 mi SW 4.6 mph - N/A   Clear
1:15 AM 45.7 °F 42.0 °F 25.5 °F 45% 30.03 in 10.0 mi SW 6.9 mph - N/A   Clear
1:35 AM 45.5 °F 43.2 °F 25.7 °F 46% 30.03 in 10.0 mi SSW 4.6 mph - N/A   Clear
1:55 AM 45.5 °F 42.5 °F 25.7 °F 46% 30.03 in 10.0 mi SSW 5.8 mph - N/A   Clear
2:15 AM 45.1 °F 42.0 °F 26.1 °F 47% 30.03 in 10.0 mi SSW 5.8 mph - N/A   Clear
2:35 AM 45.0 °F 42.6 °F 26.2 °F 48% 30.02 in 10.0 mi SSW 4.6 mph - N/A   Clear
2:55 AM 45.1 °F 43.7 °F 26.2 °F 48% 30.01 in 10.0 mi SSW 3.5 mph - N/A   Clear
3:15 AM 45.0 °F 43.5 °F 26.4 °F 48% 30.00 in 10.0 mi SSW 3.5 mph - N/A   Clear
3:35 AM 44.6 °F 43.1 °F 26.6 °F 49% 29.99 in 10.0 mi SW 3.5 mph - N/A   Clear
3:55 AM 44.6 °F 43.1 °F 26.8 °F 50% 29.99 in 10.0 mi SW 3.5 mph - N/A   Mostly Cloudy
4:15 AM 44.8 °F 43.3 °F 26.4 °F 49% 29.98 in 10.0 mi WSW 3.5 mph - N/A   Overcast
4:35 AM 44.6 °F 43.1 °F 26.6 °F 49% 29.98 in 10.0 mi WSW 3.5 mph - N/A   Overcast
4:55 AM 44.8 °F 43.3 °F 26.6 °F 49% 29.98 in 10.0 mi SW 3.5 mph - N/A   Overcast
5:15 AM 45.0 °F 42.6 °F 26.2 °F 48% 29.99 in 10.0 mi SW 4.6 mph - N/A   Overcast
5:35 AM 45.1 °F 42.0 °F 26.4 °F 48% 30.00 in 10.0 mi SW 5.8 mph - N/A   Light Drizzle
5:55 AM 44.4 °F - 28.4 °F 53% 29.99 in 10.0 mi Calm Calm - N/A Rain Light Rain
6:15 AM 43.7 °F 40.3 °F 29.7 °F 58% 30.00 in 10.0 mi SSW 5.8 mph - N/A   Light Drizzle
6:35 AM 43.7 °F 41.1 °F 30.2 °F 59% 30.00 in 10.0 mi SW 4.6 mph - N/A Rain Light Rain
6:55 AM 43.0 °F 40.3 °F 31.6 °F 64% 30.02 in 10.0 mi SW 4.6 mph - N/A   Drizzle
7:15 AM 42.1 °F 39.2 °F 32.2 °F 68% 29.99 in 10.0 mi South 4.6 mph - N/A Rain Light Rain
7:35 AM 41.5 °F - 33.3 °F 72% 29.99 in 10.0 mi Calm Calm - N/A   Light Drizzle
8:15 AM 41.0 °F - 34.5 °F 78% 29.99 in 10.0 mi Calm Calm - N/A Rain Light Rain
8:35 AM 40.8 °F 37.8 °F 35.6 °F 82% 29.99 in 10.0 mi South 4.6 mph - N/A Rain Light Rain
8:55 AM 41.0 °F 39.0 °F 35.4 °F 81% 29.99 in 10.0 mi SSW 3.5 mph - N/A Rain Light Rain
9:15 AM 41.2 °F 39.2 °F 36.1 °F 82% 30.00 in 10.0 mi SW 3.5 mph - N/A   Light Drizzle
9:35 AM 41.4 °F 38.4 °F 36.3 °F 82% 30.00 in 7.0 mi SSW 4.6 mph - N/A   Scattered Clouds
9:55 AM 41.7 °F 38.8 °F 36.1 °F 81% 29.99 in 10.0 mi SSW 4.6 mph - N/A   Clear
10:15 AM 42.3 °F 40.5 °F 36.1 °F 79% 29.99 in 10.0 mi SSW 3.5 mph - N/A   Clear
10:35 AM 43.0 °F 40.3 °F 36.7 °F 78% 30.01 in 7.0 mi SSW 4.6 mph - N/A   Mostly Cloudy
10:55 AM 43.0 °F 40.3 °F 36.3 °F 77% 30.00 in 10.0 mi SSW 4.6 mph - N/A   Overcast
11:15 AM 43.2 °F 41.5 °F 36.7 °F 78% 29.99 in 7.0 mi SW 3.5 mph - N/A   Overcast
11:35 AM 43.7 °F 41.1 °F 36.7 °F 76% 29.97 in 10.0 mi SSW 4.6 mph - N/A   Overcast
11:55 AM 44.4 °F 40.5 °F 36.7 °F 74% 29.97 in 10.0 mi SSW 6.9 mph - N/A   Overcast
12:15 PM 44.6 °F 41.4 °F 36.7 °F 74% 29.95 in 10.0 mi SSW 5.8 mph - N/A   Overcast
12:35 PM 44.6 °F 41.4 °F 37.4 °F 76% 29.93 in 10.0 mi South 5.8 mph - N/A   Mostly Cloudy
12:55 PM 45.1 °F 42.8 °F 37.8 °F 75% 29.94 in 10.0 mi SW 4.6 mph - N/A   Overcast
1:15 PM 45.5 °F 43.2 °F 37.8 °F 74% 29.93 in 10.0 mi SW 4.6 mph - N/A   Mostly Cloudy
1:35 PM 46.0 °F 43.9 °F 37.9 °F 73% 29.92 in 10.0 mi WSW 4.6 mph - N/A   Scattered Clouds
1:55 PM 46.2 °F 42.7 °F 37.8 °F 72% 29.93 in 10.0 mi WSW 6.9 mph - N/A   Scattered Clouds
2:15 PM 46.4 °F - 37.6 °F 71% 29.91 in 10.0 mi Calm Calm - N/A   Scattered Clouds
2:35 PM 46.4 °F 45.2 °F 37.4 °F 71% 29.92 in 10.0 mi WSW 3.5 mph - N/A   Scattered Clouds
2:55 PM 46.4 °F - 37.4 °F 71% 29.90 in 10.0 mi Calm Calm - N/A   Mostly Cloudy
3:15 PM 46.4 °F 45.2 °F 36.9 °F 69% 29.91 in 10.0 mi WSW 3.5 mph - N/A   Mostly Cloudy
3:35 PM 46.4 °F 45.2 °F 37.2 °F 70% 29.93 in 10.0 mi WSW 3.5 mph - N/A   Scattered Clouds
4:15 PM 46.4 °F - 37.2 °F 70% 29.94 in 10.0 mi Calm Calm - N/A   Scattered Clouds
4:35 PM 46.0 °F - 36.9 °F 70% 29.94 in 10.0 mi Calm Calm - N/A   Clear
4:55 PM 45.0 °F - 37.0 °F 74% 29.95 in 10.0 mi Calm Calm - N/A   Clear
5:15 PM 44.1 °F - 37.9 °F 79% 29.94 in 10.0 mi Calm Calm - N/A   Scattered Clouds
5:35 PM 43.7 °F - 37.8 °F 80% 29.95 in 10.0 mi Calm Calm - N/A   Scattered Clouds
5:55 PM 42.8 °F - 38.3 °F 84% 29.96 in 10.0 mi Calm Calm - N/A   Mostly Cloudy
6:15 PM 42.6 °F - 37.9 °F 83% 29.96 in 10.0 mi Calm Calm - N/A   Mostly Cloudy
6:35 PM 42.4 °F - 38.7 °F 86% 29.97 in 10.0 mi Calm Calm - N/A   Scattered Clouds
6:55 PM 41.9 °F - 39.4 °F 91% 29.97 in 10.0 mi Calm Calm - N/A   Clear
7:15 PM 42.8 °F - 38.1 °F 84% 29.96 in 10.0 mi Calm Calm - N/A   Scattered Clouds
7:35 PM 42.8 °F 41.1 °F 34.3 °F 72% 29.97 in 10.0 mi North 3.5 mph - N/A   Scattered Clouds
7:55 PM 42.4 °F - 32.9 °F 69% 29.96 in 10.0 mi Calm Calm - N/A   Scattered Clouds
8:15 PM 42.3 °F - 32.0 °F 67% 29.97 in 10.0 mi Calm Calm - N/A   Scattered Clouds
8:35 PM 41.9 °F - 31.6 °F 67% 29.98 in 10.0 mi Calm Calm - N/A   Clear
8:55 PM 41.9 °F - 31.1 °F 66% 29.98 in 10.0 mi Calm Calm - N/A   Light Drizzle
9:15 PM 41.5 °F - 32.2 °F 69% 29.98 in 10.0 mi Calm Calm - N/A   Mostly Cloudy
9:35 PM 41.0 °F - 32.0 °F 70% 30.01 in 10.0 mi Calm Calm - N/A   Mostly Cloudy
9:55 PM 40.6 °F - 34.2 °F 78% 29.99 in 10.0 mi Calm Calm - N/A Rain Light Rain
10:15 PM 40.1 °F - 35.8 °F 85% 30.02 in 10.0 mi Calm Calm - N/A Rain Light Rain
10:35 PM 40.5 °F - 33.4 °F 76% 30.01 in 10.0 mi Calm Calm - N/A Rain Light Rain
10:55 PM 39.4 °F - 36.7 °F 90% 30.01 in 10.0 mi Calm Calm - N/A Rain Light Rain
11:15 PM 39.4 °F - 37.4 °F 93% 30.02 in 10.0 mi Calm Calm - N/A Rain Rain
11:35 PM 39.9 °F 36.7 °F 35.6 °F 85% 30.02 in 10.0 mi NNE 4.6 mph - N/A Rain Light Rain
11:55 PM 40.1 °F 38.0 °F 33.3 °F 77% 30.01 in 10.0 mi NNE 3.5 mph - N/A Rain Light Rain